Hauptseite
METAR-TAF:

METAR-TAF

Flughäfen :

Goeree Le, Niederlande

Bohrplattform

Breite: 51-55-33N, Länge: 3-40-12E, Höhe: 19 m

Beobachtung

Neuester Wetterbericht von vor 29 Minuten, um 21:25 UTC
Wind 25 kt aus Ost
Temperatur 0°C
Luftfeuchtigkeit 59%
Luftdruck 1030 hPa
Sichtweite 10 km oder mehr

METAR: EHSC 252125Z AUTO 08025KT 9999 ///////// M00/M07 Q1030 W05/H13

Zeit: 22:54 (21:54 UTC)


TAF: fehlend

Wetterbeobachtungen und Prognosen von mehr als 4000 Flughäfen (METAR und TAF Bericht).

Die verfügbaren Stationen werden durch gelbe und rote Markierungen auf der Karte dargestellt.

Führen Sie die Maus auf sie, um den Namen der Station zu sehen.

Darauf klicken, um die Beobachtung von Wetterbeobachtungen und Prognosen zu sehen.

Um die Karte zu ändern : klicken Sie auf den grünen Tasten mit einem schwarzen Kreuz Zum Vergrößern, auf den grünen Button mit einem Gedankenstrich zu verkleinern, oder auf die grünen Pfeile für benachbarte Karten.


METAR-TAF: